Cloud_Cover
34 24 5 5 23 53 99 5 14 16 30 100 100 100 100 100 68 100 100 98 98 45 100 87 100 100 100 62 7 5 74 55 100 99 5 23 37 6 30 7 13 58 99
22 21 5 5 27 9 52 99 93 41 5 9 100 100 100 100 100 100 100 100 21 100 100 100 58 100 100 22 70 5 17 69 41 18 5 83 6 69 74 62 60 40 65
0 11 5 5 63 8 5 5 67 12 92 83 83 99 100 100 100 100 100 100 97 68 100 100 97 100 99 6 98 6 99 60 39 7 5 5 25 9 49 62 74 6 5
0 3 5 5 5 5 5 5 5 5 86 13 8 29 73 100 100 100 100 100 100 100 100 100 82 100 100 34 25 95 29 56 60 5 5 5 5 18 5 6 80 11 13
2 4 5 11 100 6 23 65 5 22 5 66 59 5 48 84 100 100 100 100 100 100 100 100 100 97 97 16 50 21 100 10 19 70 10 4 5 9 55 22 5 5 5
30 1 1 2 5 6 5 5 5 4 1 1 2 5 5 5 8 8 81 100 100 100 100 100 100 93 100 89 5 7 97 5 51 44 3 5 5 5 84 90 5 5 5
24 13 1 3 50 5 3 0 4 0 0 5 5 2 0 4 5 5 11 100 100 100 100 100 100 100 100 96 84 16 6 5 91 59 8 6 5 5 19 69 88 5 5
5 21 4 0 2 36 1 5 5 0 0 0 0 0 5 2 2 5 20 100 100 100 100 100 100 89 100 100 99 5 95 8 5 6 6 8 4 9 5 26 98 32 7
6 23 21 4 2 4 0 4 1 2 0 0 0 0 0 4 1 5 59 100 100 100 100 100 100 100 100 100 95 93 83 19 10 33 14 7 89 5 5 78 100 46 5
59 81 46 14 1 3 1 3 0 0 0 0 0 0 4 1 43 41 13 97 100 100 100 100 100 100 100 100 97 6 47 10 5 5 5 31 100 29 43 100 100 96 100
100 87 94 28 27 15 12 0 0 35 86 5 0 5 100 100 3 5 74 100 100 100 100 100 100 100 100 100 100 99 90 47 5 11 21 41 26 100 100 100 88 98 54
98 43 2 10 28 9 2 5 22 99 12 71 97 87 15 18 22 60 5 100 100 100 100 100 100 100 100 100 77 100 100 99 54 96 84 89 87 84 100 100 98 48 45
0 0 5 1 0 2 24 96 97 47 100 100 26 5 29 98 90 0 11 50 100 100 100 100 100 100 100 100 100 100 100 98 76 72 100 100 100 100 100 100 100 75 100
0 0 0 0 0 5 26 32 100 100 100 63 10 5 72 76 94 96 7 69 100 100 95 77 74 100 96 100 100 100 99 100 94 62 100 100 100 100 100 94 100 55 100
0 0 0 0 0 4 5 30 100 100 84 83 85 39 100 26 100 66 98 5 54 100 80 100 78 96 67 100 100 100 100 100 100 100 100 100 100 100 100 30 20 100 94
0 3 0 0 0 0 3 20 88 100 100 100 52 96 100 97 13 73 84 5 8 99 92 100 91 92 83 100 100 99 100 100 100 91 100 100 100 94 98 99 100 100 100
1 0 5 2 0 0 0 0 84 100 100 100 100 100 100 100 47 96 11 11 1 36 32 22 53 97 94 100 100 100 97 100 100 100 100 100 100 100 100 100 100 100 96
0 0 0 0 2 2 4 0 0 0 54 100 100 100 100 26 10 31 17 18 10 3 3 6 98 100 97 38 44 100 94 100 95 100 100 100 100 100 95 100 100 100 100
13 3 0 0 1 1 13 84 100 78 40 23 52 99 100 85 86 57 22 28 96 10 52 100 100 100 86 5 100 100 70 100 100 100 100 100 100 100 100 100 91 100 100
100 100 1 3 2 42 52 10 39 44 1 15 28 12 90 100 22 57 34 21 7 15 47 96 100 100 100 32 88 94 40 98 100 100 100 100 99 100 100 100 99 88 100
100 100 100 100 65 100 95 98 100 100 100 15 41 5 66 39 87 5 20 16 24 5 10 100 96 100 100 100 100 90 38 62 100 100 100 100 100 100 100 100 100 93 100
100 100 100 100 100 100 13 5 2 4 6 4 52 5 82 92 41 5 5 17 23 20 14 96 100 100 89 99 91 94 32 73 100 100 100 99 100 100 100 100 100 100 92
100 100 100 100 100 100 80 4 0 0 0 0 1 5 9 5 53 10 5 5 12 19 16 80 100 100 96 100 100 96 100 61 82 75 100 100 90 100 100 100 100 100 100
100 100 100 100 100 100 4 11 0 0 0 2 6 5 5 5 6 5 5 3 12 24 20 21 95 55 62 100 100 70 98 100 25 94 100 100 98 100 100 100 100 100 100
100 100 100 100 100 100 5 0 0 0 0 0 5 5 1 2 4 4 5 2 10 28 17 14 29 54 91 79 65 53 98 99 100 100 99 95 87 100 100 100 100 100 100
100 100 100 100 100 100 90 0 0 0 0 7 10 17 29 15 6 5 5 5 33 28 21 80 42 75 94 82 100 98 70 94 100 91 100 100 100 99 100 100 100 100 90